Time,TemperatureF,DewpointF,PressureIn,WindDirection,WindDirectionDegrees,WindSpeedMPH,WindSpeedGustMPH,Humidity,HourlyPrecipIn,Conditions,Clouds,dailyrainin,SoftwareType,DateUTC
2013-06-06 00:03:00,74.5,-11.4,29.77,WSW,242,0.0,0.0,3,0.00,,---,0.00,VWS V14.01,2013-06-06 07:03:00,
2013-06-06 00:08:00,74.7,-11.2,29.77,SW,229,0.0,0.0,3,0.00,,---,0.00,VWS V14.01,2013-06-06 07:08:00,
2013-06-06 00:13:00,75.7,-10.5,29.77,SW,223,0.0,0.0,3,0.00,,---,0.00,VWS V14.01,2013-06-06 07:13:00,
2013-06-06 00:18:00,75.7,-10.5,29.77,SW,224,0.0,0.0,3,0.00,,---,0.00,VWS V14.01,2013-06-06 07:18:00,
2013-06-06 00:23:00,76.1,-10.3,29.74,SW,226,0.0,0.0,3,0.00,,---,0.00,VWS V14.01,2013-06-06 07:23:00,
2013-06-06 00:28:00,75.4,-10.8,29.74,SW,226,0.0,0.0,3,0.00,,---,0.00,VWS V14.01,2013-06-06 07:28:00,
2013-06-06 00:33:00,75.0,-11.0,29.74,SW,226,0.0,0.0,3,0.00,,---,0.00,VWS V14.01,2013-06-06 07:33:00,
2013-06-06 00:39:00,74.3,-11.5,29.74,SW,226,0.0,0.0,3,0.00,,---,0.00,VWS V14.01,2013-06-06 07:39:00,
2013-06-06 00:44:00,74.3,-11.5,29.74,SW,226,0.0,0.0,3,0.00,,---,0.00,VWS V14.01,2013-06-06 07:44:00,
2013-06-06 00:49:00,73.4,-12.1,29.74,SW,226,0.0,0.0,3,0.00,,---,0.00,VWS V14.01,2013-06-06 07:49:00,
2013-06-06 00:54:00,73.6,-12.0,29.74,SW,218,0.0,0.0,3,0.00,,---,0.00,VWS V14.01,2013-06-06 07:54:00,
2013-06-06 00:59:00,73.6,-12.0,29.74,SW,219,0.0,0.0,3,0.00,,---,0.00,VWS V14.01,2013-06-06 07:59:00,
2013-06-06 01:04:00,73.4,-12.1,29.74,SW,219,0.0,0.0,3,0.00,,---,0.00,VWS V14.01,2013-06-06 08:04:00,
2013-06-06 01:10:00,72.1,-7.1,29.74,SW,219,0.0,0.0,4,0.00,,---,0.00,VWS V14.01,2013-06-06 08:10:00,
2013-06-06 01:15:00,71.8,-7.4,29.74,SW,219,0.0,0.0,4,0.00,,---,0.00,VWS V14.01,2013-06-06 08:15:00,
2013-06-06 01:20:00,71.4,-7.6,29.74,SW,219,0.0,0.0,4,0.00,,---,0.00,VWS V14.01,2013-06-06 08:20:00,
2013-06-06 01:25:00,71.2,-7.8,29.74,SW,219,0.0,0.0,4,0.00,,---,0.00,VWS V14.01,2013-06-06 08:25:00,
2013-06-06 01:30:00,71.2,-7.8,29.74,SW,219,0.0,0.0,4,0.00,,---,0.00,VWS V14.01,2013-06-06 08:30:00,
2013-06-06 01:35:00,71.2,-7.8,29.74,SW,219,0.0,0.0,4,0.00,,---,0.00,VWS V14.01,2013-06-06 08:35:00,
2013-06-06 01:40:00,70.9,-8.0,29.74,SW,218,0.0,0.0,4,0.00,,---,0.00,VWS V14.01,2013-06-06 08:40:00,
2013-06-06 01:45:00,70.7,-8.1,29.74,SW,218,0.0,0.0,4,0.00,,---,0.00,VWS V14.01,2013-06-06 08:45:00,
2013-06-06 01:50:00,70.7,-8.1,29.74,SW,218,0.0,0.0,4,0.00,,---,0.00,VWS V14.01,2013-06-06 08:50:00,
2013-06-06 01:55:00,70.7,-8.1,29.74,SW,218,0.0,0.0,4,0.00,,---,0.00,VWS V14.01,2013-06-06 08:55:00,
2013-06-06 02:00:00,70.5,-8.3,29.74,SW,218,0.0,0.0,4,0.00,,---,0.00,VWS V14.01,2013-06-06 09:00:00,
2013-06-06 02:05:00,70.0,-8.6,29.74,SW,216,0.0,0.0,4,0.00,,---,0.00,VWS V14.01,2013-06-06 09:05:00,
2013-06-06 02:11:00,70.0,-8.6,29.74,SW,216,0.0,0.0,4,0.00,,---,0.00,VWS V14.01,2013-06-06 09:11:00,
2013-06-06 02:16:00,70.2,-8.5,29.74,SSW,213,0.0,0.0,4,0.00,,---,0.00,VWS V14.01,2013-06-06 09:16:00,
2013-06-06 02:21:00,70.3,-8.4,29.74,SSW,213,0.0,0.0,4,0.00,,---,0.00,VWS V14.01,2013-06-06 09:21:00,
2013-06-06 02:26:00,70.2,-8.5,29.74,SSW,213,0.0,0.0,4,0.00,,---,0.00,VWS V14.01,2013-06-06 09:26:00,
2013-06-06 02:31:00,69.8,-8.8,29.74,SSW,213,0.0,0.0,4,0.00,,---,0.00,VWS V14.01,2013-06-06 09:31:00,
2013-06-06 02:36:00,69.4,-4.4,29.74,SSW,213,0.0,0.0,5,0.00,,---,0.00,VWS V14.01,2013-06-06 09:36:00,
2013-06-06 02:41:00,69.3,-4.6,29.74,SSW,213,0.0,0.0,5,0.00,,---,0.00,VWS V14.01,2013-06-06 09:41:00,
2013-06-06 02:46:00,68.7,-4.9,29.74,SSW,213,0.0,0.0,5,0.00,,---,0.00,VWS V14.01,2013-06-06 09:46:00,
2013-06-06 02:51:00,68.4,-5.2,29.74,SSW,213,0.0,0.0,5,0.00,,---,0.00,VWS V14.01,2013-06-06 09:51:00,
2013-06-06 02:56:00,67.8,-5.6,29.74,SSW,213,0.0,0.0,5,0.00,,---,0.00,VWS V14.01,2013-06-06 09:56:00,
2013-06-06 03:01:00,67.8,-5.6,29.74,SSW,213,0.0,0.0,5,0.00,,---,0.00,VWS V14.01,2013-06-06 10:01:00,
2013-06-06 03:06:00,67.8,-5.6,29.74,SSW,213,0.0,0.0,5,0.00,,---,0.00,VWS V14.01,2013-06-06 10:06:00,
2013-06-06 03:12:00,67.8,-5.6,29.74,SSW,213,0.0,0.0,5,0.00,,---,0.00,VWS V14.01,2013-06-06 10:12:00,
2013-06-06 03:17:00,67.3,-6.0,29.74,SSW,213,0.0,0.0,5,0.00,,---,0.00,VWS V14.01,2013-06-06 10:17:00,
2013-06-06 03:22:00,67.1,-6.1,29.74,SSW,213,0.0,0.0,5,0.00,,---,0.00,VWS V14.01,2013-06-06 10:22:00,
2013-06-06 03:27:00,66.7,-6.3,29.74,SSW,213,0.0,0.0,5,0.00,,---,0.00,VWS V14.01,2013-06-06 10:27:00,
2013-06-06 03:32:00,66.7,-6.3,29.74,SSW,213,0.0,0.0,5,0.00,,---,0.00,VWS V14.01,2013-06-06 10:32:00,
2013-06-06 03:37:00,66.7,-6.3,29.74,SSW,213,0.0,0.0,5,0.00,,---,0.00,VWS V14.01,2013-06-06 10:37:00,
2013-06-06 03:42:00,66.6,-6.5,29.74,SSW,213,0.0,0.0,5,0.00,,---,0.00,VWS V14.01,2013-06-06 10:42:00,
2013-06-06 03:47:00,66.0,-6.9,29.74,SSW,213,0.0,0.0,5,0.00,,---,0.00,VWS V14.01,2013-06-06 10:47:00,
2013-06-06 03:52:00,66.4,-6.6,29.74,SSW,213,0.0,0.0,5,0.00,,---,0.00,VWS V14.01,2013-06-06 10:52:00,
2013-06-06 03:57:00,66.9,-6.2,29.74,SW,215,0.0,0.0,5,0.00,,---,0.00,VWS V14.01,2013-06-06 10:57:00,
2013-06-06 04:02:00,67.3,-6.0,29.77,SW,218,5.8,5.8,5,0.00,,---,0.00,VWS V14.01,2013-06-06 11:02:00,
2013-06-06 04:07:00,67.3,-6.0,29.77,SW,220,6.3,6.3,5,0.00,,---,0.00,VWS V14.01,2013-06-06 11:07:00,
2013-06-06 04:13:00,67.5,-5.8,29.74,SW,220,6.3,6.3,5,0.00,,---,0.00,VWS V14.01,2013-06-06 11:13:00,
2013-06-06 04:18:00,67.5,-5.8,29.74,SW,231,5.8,5.8,5,0.00,,---,0.00,VWS V14.01,2013-06-06 11:18:00,
2013-06-06 04:23:00,67.5,-5.8,29.74,SW,224,0.0,4.0,5,0.00,,---,0.00,VWS V14.01,2013-06-06 11:23:00,
2013-06-06 04:28:00,67.1,-6.1,29.74,North,11,0.0,0.0,5,0.00,,---,0.00,VWS V14.01,2013-06-06 11:28:00,
2013-06-06 04:33:00,66.2,-6.7,29.74,North,11,0.0,0.0,5,0.00,,---,0.00,VWS V14.01,2013-06-06 11:33:00,
2013-06-06 04:38:00,64.6,-7.9,29.74,North,11,0.0,0.0,5,0.00,,---,0.00,VWS V14.01,2013-06-06 11:38:00,
2013-06-06 04:43:00,63.9,-4.7,29.74,North,11,0.0,0.0,6,0.00,,---,0.00,VWS V14.01,2013-06-06 11:43:00,
2013-06-06 04:48:00,63.0,-5.3,29.74,North,11,0.0,0.0,6,0.00,,---,0.00,VWS V14.01,2013-06-06 11:48:00,
2013-06-06 04:53:00,62.8,-5.4,29.74,SW,215,0.0,0.0,6,0.00,,---,0.00,VWS V14.01,2013-06-06 11:53:00,
2013-06-06 04:58:00,63.1,-5.2,29.74,SW,215,0.0,0.0,6,0.00,,---,0.00,VWS V14.01,2013-06-06 11:58:00,
2013-06-06 05:03:00,63.3,-5.0,29.74,SSW,211,0.0,0.0,6,0.00,,---,0.00,VWS V14.01,2013-06-06 12:03:00,
2013-06-06 05:09:00,63.7,-4.8,29.74,SSW,211,0.0,0.0,6,0.00,,---,0.00,VWS V14.01,2013-06-06 12:09:00,
2013-06-06 05:14:00,63.5,-4.9,29.74,SSW,211,0.0,0.0,6,0.00,,---,0.00,VWS V14.01,2013-06-06 12:14:00,
2013-06-06 05:19:00,63.3,-5.0,29.77,SSW,211,0.0,0.0,6,0.00,,---,0.00,VWS V14.01,2013-06-06 12:19:00,
2013-06-06 05:24:00,63.3,-5.0,29.77,SSW,211,0.0,0.0,6,0.00,,---,0.00,VWS V14.01,2013-06-06 12:24:00,
2013-06-06 05:29:00,63.3,-5.0,29.77,SSW,211,0.0,0.0,6,0.00,,---,0.00,VWS V14.01,2013-06-06 12:29:00,
2013-06-06 05:34:00,63.5,-4.9,29.77,SSW,211,0.0,0.0,6,0.00,,---,0.00,VWS V14.01,2013-06-06 12:34:00,
2013-06-06 05:39:00,63.7,-4.8,29.77,SSW,211,0.0,0.0,6,0.00,,---,0.00,VWS V14.01,2013-06-06 12:39:00,
2013-06-06 05:44:00,64.0,-4.5,29.77,SSW,211,0.0,0.0,6,0.00,,---,0.00,VWS V14.01,2013-06-06 12:44:00,
2013-06-06 05:49:00,64.2,-4.4,29.77,SSW,211,0.0,0.0,6,0.00,,---,0.00,VWS V14.01,2013-06-06 12:49:00,
2013-06-06 05:55:00,64.8,-7.8,29.77,SSW,211,0.0,0.0,5,0.00,,---,0.00,VWS V14.01,2013-06-06 12:55:00,
2013-06-06 06:00:00,65.3,-7.4,29.77,SSW,211,0.0,0.0,5,0.00,,---,0.00,VWS V14.01,2013-06-06 13:00:00,
2013-06-06 06:05:00,65.7,-7.1,29.77,SSW,211,0.0,0.0,5,0.00,,---,0.00,VWS V14.01,2013-06-06 13:05:00,
2013-06-06 06:10:00,66.4,-6.6,29.77,SSW,211,0.0,0.0,5,0.00,,---,0.00,VWS V14.01,2013-06-06 13:10:00,
2013-06-06 06:15:00,67.5,-5.8,29.77,SSW,211,0.0,0.0,5,0.00,,---,0.00,VWS V14.01,2013-06-06 13:15:00,
2013-06-06 06:20:00,68.7,-4.9,29.77,SSW,211,0.0,0.0,5,0.00,,---,0.00,VWS V14.01,2013-06-06 13:20:00,
2013-06-06 06:25:00,69.4,-4.4,29.77,SSW,211,0.0,0.0,5,0.00,,---,0.00,VWS V14.01,2013-06-06 13:25:00,
2013-06-06 06:30:00,69.6,-4.3,29.77,SSW,211,0.0,0.0,5,0.00,,---,0.00,VWS V14.01,2013-06-06 13:30:00,
2013-06-06 06:35:00,70.5,-8.3,29.77,SSW,211,0.0,0.0,4,0.00,,---,0.00,VWS V14.01,2013-06-06 13:35:00,
2013-06-06 06:40:00,71.2,-7.8,29.77,SSW,213,0.0,0.0,4,0.00,,---,0.00,VWS V14.01,2013-06-06 13:40:00,
2013-06-06 06:46:00,71.6,-7.5,29.77,SW,214,0.0,0.0,4,0.00,,---,0.00,VWS V14.01,2013-06-06 13:46:00,
2013-06-06 06:51:00,72.1,-7.1,29.77,SW,224,0.0,0.0,4,0.00,,---,0.00,VWS V14.01,2013-06-06 13:51:00,
2013-06-06 06:56:00,72.7,-6.8,29.77,WSW,241,0.0,0.0,4,0.00,,---,0.00,VWS V14.01,2013-06-06 13:56:00,
2013-06-06 07:01:00,73.2,-6.4,29.77,WSW,254,0.0,0.0,4,0.00,,---,0.00,VWS V14.01,2013-06-06 14:01:00,
2013-06-06 07:06:00,73.2,-6.4,29.77,West,266,0.0,0.0,4,0.00,,---,0.00,VWS V14.01,2013-06-06 14:06:00,
2013-06-06 07:11:00,73.6,-12.0,29.77,WNW,303,0.0,0.0,3,0.00,,---,0.00,VWS V14.01,2013-06-06 14:11:00,
2013-06-06 07:17:00,74.1,-11.6,29.77,WNW,298,0.0,0.0,3,0.00,,---,0.00,VWS V14.01,2013-06-06 14:17:00,
2013-06-06 07:22:00,74.5,-11.4,29.77,NW,320,0.0,0.0,3,0.00,,---,0.00,VWS V14.01,2013-06-06 14:22:00,
2013-06-06 07:27:00,75.0,-11.0,29.77,North,353,0.0,0.0,3,0.00,,---,0.00,VWS V14.01,2013-06-06 14:27:00,
2013-06-06 07:32:00,75.4,-10.8,29.77,North,353,0.0,0.0,3,0.00,,---,0.00,VWS V14.01,2013-06-06 14:32:00,
2013-06-06 07:37:00,75.4,-10.8,29.77,NNW,345,4.0,4.0,3,0.00,,---,0.00,VWS V14.01,2013-06-06 14:37:00,
2013-06-06 07:42:00,76.5,-10.0,29.77,NW,326,0.0,0.0,3,0.00,,---,0.00,VWS V14.01,2013-06-06 14:42:00,
2013-06-06 07:48:00,76.8,-9.8,29.77,NNW,333,0.0,0.0,3,0.00,,---,0.00,VWS V14.01,2013-06-06 14:48:00,
2013-06-06 07:53:00,77.0,30.3,29.77,NNW,335,0.0,0.0,18,0.00,,---,0.00,VWS V14.01,2013-06-06 14:53:00,
2013-06-06 07:58:00,77.4,30.6,29.77,NNW,341,0.0,0.0,18,0.00,,---,0.00,VWS V14.01,2013-06-06 14:58:00,
2013-06-06 08:03:00,77.5,30.7,29.77,NNW,341,0.0,0.0,18,0.00,,---,0.00,VWS V14.01,2013-06-06 15:03:00,
2013-06-06 08:08:00,78.1,31.2,29.77,NNW,341,0.0,0.0,18,0.00,,---,0.00,VWS V14.01,2013-06-06 15:08:00,
2013-06-06 08:14:00,78.4,31.5,29.77,NNW,341,0.0,0.0,18,0.00,,---,0.00,VWS V14.01,2013-06-06 15:14:00,
2013-06-06 08:19:00,79.0,30.5,29.77,NNW,341,0.0,0.0,17,0.00,,---,0.00,VWS V14.01,2013-06-06 15:19:00,
2013-06-06 08:24:00,79.3,30.8,29.77,NNW,341,0.0,0.0,17,0.00,,---,0.00,VWS V14.01,2013-06-06 15:24:00,
2013-06-06 08:29:00,79.9,31.2,29.77,NNW,341,0.0,0.0,17,0.00,,---,0.00,VWS V14.01,2013-06-06 15:29:00,
2013-06-06 08:34:00,80.6,31.8,29.77,NNW,333,0.0,0.0,17,0.00,,---,0.00,VWS V14.01,2013-06-06 15:34:00,
2013-06-06 08:39:00,80.8,32.0,29.77,NNW,333,0.0,0.0,17,0.00,,---,0.00,VWS V14.01,2013-06-06 15:39:00,
2013-06-06 08:44:00,81.5,32.5,29.77,NNW,333,0.0,0.0,17,0.00,,---,0.00,VWS V14.01,2013-06-06 15:44:00,
2013-06-06 08:49:00,81.9,32.8,29.77,NNW,333,0.0,0.0,17,0.00,,---,0.00,VWS V14.01,2013-06-06 15:49:00,
2013-06-06 08:54:00,82.9,33.7,29.77,NNW,333,0.0,0.0,17,0.00,,---,0.00,VWS V14.01,2013-06-06 15:54:00,
2013-06-06 09:00:00,83.7,34.3,29.77,NNW,335,0.0,0.0,17,0.00,,---,0.00,VWS V14.01,2013-06-06 16:00:00,
2013-06-06 09:05:00,84.4,34.8,29.77,North,11,5.4,5.4,17,0.00,,---,0.00,VWS V14.01,2013-06-06 16:05:00,
2013-06-06 09:10:00,84.6,35.0,29.77,North,10,0.0,4.0,17,0.00,,---,0.00,VWS V14.01,2013-06-06 16:10:00,
2013-06-06 09:15:00,85.3,35.6,29.77,North,11,0.0,0.0,17,0.00,,---,0.00,VWS V14.01,2013-06-06 16:15:00,
2013-06-06 09:20:00,85.8,36.0,29.77,NE,44,0.0,0.0,17,0.00,,---,0.00,VWS V14.01,2013-06-06 16:20:00,
2013-06-06 09:25:00,86.2,36.3,29.77,NE,56,2.7,2.7,17,0.00,,---,0.00,VWS V14.01,2013-06-06 16:25:00,
2013-06-06 09:30:00,86.5,36.6,29.77,NE,48,0.0,0.0,17,0.00,,---,0.00,VWS V14.01,2013-06-06 16:30:00,
2013-06-06 09:35:00,87.4,37.3,29.74,NE,46,0.0,0.0,17,0.00,,---,0.00,VWS V14.01,2013-06-06 16:35:00,
2013-06-06 09:40:00,87.6,37.5,29.74,NE,44,0.0,0.0,17,0.00,,---,0.00,VWS V14.01,2013-06-06 16:40:00,
2013-06-06 09:46:00,88.2,37.9,29.74,ENE,77,0.0,3.1,17,0.00,,---,0.00,VWS V14.01,2013-06-06 16:46:00,
2013-06-06 09:51:00,88.5,38.2,29.74,ENE,75,0.0,0.0,17,0.00,,---,0.00,VWS V14.01,2013-06-06 16:51:00,
2013-06-06 09:56:00,89.2,38.8,29.74,North,357,0.0,0.0,17,0.00,,---,0.00,VWS V14.01,2013-06-06 16:56:00,
2013-06-06 10:01:00,89.4,38.9,29.74,North,357,0.0,0.0,17,0.00,,---,0.00,VWS V14.01,2013-06-06 17:01:00,
2013-06-06 10:06:00,90.3,39.6,29.74,North,357,0.0,0.0,17,0.00,,---,0.00,VWS V14.01,2013-06-06 17:06:00,
2013-06-06 10:11:00,90.9,40.1,29.74,North,357,0.0,0.0,17,0.00,,---,0.00,VWS V14.01,2013-06-06 17:11:00,
2013-06-06 10:16:00,91.8,40.8,29.74,North,357,0.0,0.0,17,0.00,,---,0.00,VWS V14.01,2013-06-06 17:16:00,
2013-06-06 10:21:00,91.9,40.9,29.74,North,357,3.1,3.6,17,0.00,,---,0.00,VWS V14.01,2013-06-06 17:21:00,
2013-06-06 10:27:00,92.5,41.4,29.74,North,357,2.7,2.7,17,0.00,,---,0.00,VWS V14.01,2013-06-06 17:27:00,
2013-06-06 10:32:00,92.8,41.7,29.74,North,357,2.7,2.7,17,0.00,,---,0.00,VWS V14.01,2013-06-06 17:32:00,
2013-06-06 10:37:00,93.0,41.8,29.74,North,357,4.0,4.0,17,0.00,,---,0.00,VWS V14.01,2013-06-06 17:37:00,
2013-06-06 10:42:00,93.0,41.8,29.74,North,357,0.0,3.1,17,0.00,,---,0.00,VWS V14.01,2013-06-06 17:42:00,
2013-06-06 10:47:00,93.6,42.2,29.74,North,357,0.0,0.0,17,0.00,,---,0.00,VWS V14.01,2013-06-06 17:47:00,
2013-06-06 10:52:00,94.8,43.3,29.74,North,357,0.0,0.0,17,0.00,,---,0.00,VWS V14.01,2013-06-06 17:52:00,
2013-06-06 10:57:00,95.5,43.8,29.74,North,357,3.1,3.1,17,0.00,,---,0.00,VWS V14.01,2013-06-06 17:57:00,
2013-06-06 11:02:00,95.9,44.1,29.74,North,357,2.7,2.7,17,0.00,,---,0.00,VWS V14.01,2013-06-06 18:02:00,
2013-06-06 11:08:00,96.3,44.4,29.74,North,357,3.6,3.6,17,0.00,,---,0.00,VWS V14.01,2013-06-06 18:08:00,
2013-06-06 11:13:00,96.4,44.6,29.74,North,357,2.7,2.7,17,0.00,,---,0.00,VWS V14.01,2013-06-06 18:13:00,
2013-06-06 11:18:00,97.2,45.1,29.74,North,357,2.7,2.7,17,0.00,,---,0.00,VWS V14.01,2013-06-06 18:18:00,
2013-06-06 11:23:00,97.3,45.3,29.74,North,357,5.8,5.8,17,0.00,,---,0.00,VWS V14.01,2013-06-06 18:23:00,
2013-06-06 11:28:00,97.7,45.6,29.74,North,357,0.0,0.0,17,0.00,,---,0.00,VWS V14.01,2013-06-06 18:28:00,
2013-06-06 11:33:00,98.8,46.4,29.74,North,10,6.3,6.3,17,0.00,,---,0.00,VWS V14.01,2013-06-06 18:33:00,
2013-06-06 11:39:00,99.0,46.6,29.74,North,357,4.9,4.9,17,0.00,,---,0.00,VWS V14.01,2013-06-06 18:39:00,
2013-06-06 11:44:00,99.5,47.0,29.74,North,357,0.0,6.3,17,0.00,,---,0.00,VWS V14.01,2013-06-06 18:44:00,
2013-06-06 11:49:00,100.0,47.4,29.74,North,10,6.3,9.6,17,0.00,,---,0.00,VWS V14.01,2013-06-06 18:49:00,
2013-06-06 11:54:00,100.0,47.4,29.71,North,357,7.6,7.6,17,0.00,,---,0.00,VWS V14.01,2013-06-06 18:54:00,
2013-06-06 11:59:00,100.4,47.7,29.71,North,8,0.0,0.0,17,0.00,,---,0.00,VWS V14.01,2013-06-06 18:59:00,
2013-06-06 12:04:00,100.4,47.7,29.71,North,357,4.0,4.0,17,0.00,,---,0.00,VWS V14.01,2013-06-06 19:04:00,
2013-06-06 12:09:00,100.0,47.4,29.71,North,10,2.2,2.2,17,0.00,,---,0.00,VWS V14.01,2013-06-06 19:09:00,
2013-06-06 12:14:00,100.4,47.7,29.71,North,357,0.0,0.0,17,0.00,,---,0.00,VWS V14.01,2013-06-06 19:14:00,
2013-06-06 12:19:00,100.4,47.7,29.71,North,357,3.6,3.6,17,0.00,,---,0.00,VWS V14.01,2013-06-06 19:19:00,
2013-06-06 12:24:00,100.4,47.7,29.71,North,357,0.0,0.0,17,0.00,,---,0.00,VWS V14.01,2013-06-06 19:24:00,
2013-06-06 12:30:00,100.8,48.0,29.71,North,10,5.4,5.8,17,0.00,,---,0.00,VWS V14.01,2013-06-06 19:30:00,
2013-06-06 12:35:00,101.1,48.3,29.71,North,8,0.0,0.0,17,0.00,,---,0.00,VWS V14.01,2013-06-06 19:35:00,
2013-06-06 12:37:00,101.3,48.5,29.71,North,5,3.6,3.6,17,0.00,,---,0.00,VWS V14.01,2013-06-06 19:37:00,
2013-06-06 12:42:00,100.9,48.2,29.71,North,357,0.0,0.0,17,0.00,,---,0.00,VWS V14.01,2013-06-06 19:42:00,
2013-06-06 12:47:00,101.7,48.7,29.71,North,357,0.0,0.0,17,0.00,,---,0.00,VWS V14.01,2013-06-06 19:47:00,
2013-06-06 12:53:00,101.8,48.9,29.71,North,0,8.1,8.1,17,0.00,,---,0.00,VWS V14.01,2013-06-06 19:53:00,
2013-06-06 12:58:00,100.8,48.0,29.71,North,0,2.7,2.7,17,0.00,,---,0.00,VWS V14.01,2013-06-06 19:58:00,
2013-06-06 13:14:00,102.4,49.3,29.68,North,8,8.1,8.1,17,0.00,,---,0.00,VWS V14.01,2013-06-06 20:14:00,
2013-06-06 13:19:00,103.1,49.9,29.68,North,5,4.0,7.6,17,0.00,,---,0.00,VWS V14.01,2013-06-06 20:19:00,
2013-06-06 13:24:00,102.7,49.6,29.68,North,5,4.0,4.0,17,0.00,,---,0.00,VWS V14.01,2013-06-06 20:24:00,
2013-06-06 13:29:00,102.7,49.6,29.68,North,4,3.6,3.6,17,0.00,,---,0.00,VWS V14.01,2013-06-06 20:29:00,
2013-06-06 13:34:00,103.3,50.0,29.68,North,5,4.0,4.0,17,0.00,,---,0.00,VWS V14.01,2013-06-06 20:34:00,
2013-06-06 13:39:00,103.3,50.0,29.68,North,0,6.3,6.7,17,0.00,,---,0.00,VWS V14.01,2013-06-06 20:39:00,
2013-06-06 13:45:00,103.3,50.0,29.68,North,0,8.1,8.1,17,0.00,,---,0.00,VWS V14.01,2013-06-06 20:45:00,
2013-06-06 13:50:00,102.7,49.6,29.68,North,0,0.0,0.0,17,0.00,,---,0.00,VWS V14.01,2013-06-06 20:50:00,
2013-06-06 13:55:00,102.9,49.8,29.68,North,357,0.0,4.9,17,0.00,,---,0.00,VWS V14.01,2013-06-06 20:55:00,
2013-06-06 14:00:00,102.9,49.8,29.68,North,2,2.2,2.2,17,0.00,,---,0.00,VWS V14.01,2013-06-06 21:00:00,
2013-06-06 14:05:00,102.9,49.8,29.68,North,2,5.4,5.4,17,0.00,,---,0.00,VWS V14.01,2013-06-06 21:05:00,
2013-06-06 14:10:00,102.4,49.3,29.68,North,0,5.8,5.8,17,0.00,,---,0.00,VWS V14.01,2013-06-06 21:10:00,
2013-06-06 14:16:00,102.4,49.3,29.68,North,2,0.0,0.0,17,0.00,,---,0.00,VWS V14.01,2013-06-06 21:16:00,
2013-06-06 14:21:00,101.5,48.6,29.68,North,5,4.0,4.0,17,0.00,,---,0.00,VWS V14.01,2013-06-06 21:21:00,
2013-06-06 14:26:00,100.6,47.9,29.68,North,0,0.0,0.0,17,0.00,,---,0.00,VWS V14.01,2013-06-06 21:26:00,
2013-06-06 14:31:00,100.0,47.4,29.68,North,357,3.1,3.1,17,0.00,,---,0.00,VWS V14.01,2013-06-06 21:31:00,
2013-06-06 14:36:00,99.9,47.3,29.68,North,10,0.0,0.0,17,0.00,,---,0.00,VWS V14.01,2013-06-06 21:36:00,
2013-06-06 14:41:00,100.6,47.9,29.68,North,10,0.0,0.0,17,0.00,,---,0.00,VWS V14.01,2013-06-06 21:41:00,
2013-06-06 14:47:00,102.4,49.3,29.68,North,357,8.3,8.3,17,0.00,,---,0.00,VWS V14.01,2013-06-06 21:47:00,
2013-06-06 14:52:00,102.9,49.8,29.68,North,357,5.8,5.8,17,0.00,,---,0.00,VWS V14.01,2013-06-06 21:52:00,
2013-06-06 14:57:00,102.7,49.6,29.65,North,357,0.0,0.0,17,0.00,,---,0.00,VWS V14.01,2013-06-06 21:57:00,
2013-06-06 15:02:00,103.3,50.0,29.65,North,357,5.4,5.4,17,0.00,,---,0.00,VWS V14.01,2013-06-06 22:02:00,
2013-06-06 15:07:00,102.7,49.6,29.65,North,357,5.4,5.4,17,0.00,,---,0.00,VWS V14.01,2013-06-06 22:07:00,
2013-06-06 15:12:00,102.2,49.2,29.65,North,5,6.3,6.3,17,0.00,,---,0.00,VWS V14.01,2013-06-06 22:12:00,
2013-06-06 15:17:00,101.1,48.3,29.65,North,4,0.0,0.0,17,0.00,,---,0.00,VWS V14.01,2013-06-06 22:17:00,
2013-06-06 15:22:00,100.9,48.2,29.65,North,4,0.0,0.0,17,0.00,,---,0.00,VWS V14.01,2013-06-06 22:22:00,
2013-06-06 15:27:00,99.5,47.0,29.65,NNE,13,3.1,3.1,17,0.00,,---,0.00,VWS V14.01,2013-06-06 22:27:00,
2013-06-06 15:33:00,99.3,46.9,29.65,North,357,0.0,0.0,17,0.00,,---,0.00,VWS V14.01,2013-06-06 22:33:00,
2013-06-06 15:38:00,99.5,47.0,29.65,North,357,0.0,0.0,17,0.00,,---,0.00,VWS V14.01,2013-06-06 22:38:00,
2013-06-06 15:43:00,99.7,47.2,29.65,North,9,5.4,5.4,17,0.00,,---,0.00,VWS V14.01,2013-06-06 22:43:00,
2013-06-06 15:48:00,99.7,47.2,29.65,North,5,0.0,0.0,17,0.00,,---,0.00,VWS V14.01,2013-06-06 22:48:00,
2013-06-06 15:53:00,99.5,47.0,29.65,NNE,14,0.0,0.0,17,0.00,,---,0.00,VWS V14.01,2013-06-06 22:53:00,
2013-06-06 15:58:00,99.9,47.3,29.65,North,8,8.1,8.1,17,0.00,,---,0.00,VWS V14.01,2013-06-06 22:58:00,
2013-06-06 16:04:00,99.9,47.3,29.65,North,8,2.7,2.7,17,0.00,,---,0.00,VWS V14.01,2013-06-06 23:04:00,
2013-06-06 16:09:00,100.2,47.6,29.65,North,8,3.1,3.1,17,0.00,,---,0.00,VWS V14.01,2013-06-06 23:09:00,
2013-06-06 16:14:00,100.2,47.6,29.65,North,8,0.0,3.1,17,0.00,,---,0.00,VWS V14.01,2013-06-06 23:14:00,
2013-06-06 16:19:00,100.8,48.0,29.65,North,8,0.0,0.0,17,0.00,,---,0.00,VWS V14.01,2013-06-06 23:19:00,
2013-06-06 16:24:00,100.6,47.9,29.65,NNE,13,0.0,0.0,17,0.00,,---,0.00,VWS V14.01,2013-06-06 23:24:00,
2013-06-06 16:29:00,100.6,47.9,29.65,NNE,13,0.0,0.0,17,0.00,,---,0.00,VWS V14.01,2013-06-06 23:29:00,
2013-06-06 16:34:00,99.9,47.3,29.65,NNE,15,0.0,0.0,17,0.00,,---,0.00,VWS V14.01,2013-06-06 23:34:00,
2013-06-06 16:40:00,99.9,47.3,29.62,NNE,13,0.0,0.0,17,0.00,,---,0.00,VWS V14.01,2013-06-06 23:40:00,
2013-06-06 16:45:00,100.2,47.6,29.62,NNE,13,0.0,0.0,17,0.00,,---,0.00,VWS V14.01,2013-06-06 23:45:00,
2013-06-06 16:50:00,100.2,47.6,29.62,North,8,2.2,2.2,17,0.00,,---,0.00,VWS V14.01,2013-06-06 23:50:00,
2013-06-06 16:55:00,99.3,46.9,29.62,North,8,2.2,2.2,17,0.00,,---,0.00,VWS V14.01,2013-06-06 23:55:00,
2013-06-06 17:00:00,99.3,46.9,29.62,North,6,0.0,0.0,17,0.00,,---,0.00,VWS V14.01,2013-06-07 00:00:00,
2013-06-06 17:05:00,98.6,46.3,29.62,North,6,0.0,0.0,17,0.00,,---,0.00,VWS V14.01,2013-06-07 00:05:00,
2013-06-06 17:10:00,98.2,46.0,29.62,North,7,6.3,6.3,17,0.00,,---,0.00,VWS V14.01,2013-06-07 00:10:00,
2013-06-06 17:15:00,98.1,45.9,29.62,North,6,7.6,7.6,17,0.00,,---,0.00,VWS V14.01,2013-06-07 00:15:00,
2013-06-06 17:20:00,98.1,45.9,29.62,North,8,0.0,0.0,17,0.00,,---,0.00,VWS V14.01,2013-06-07 00:20:00,
2013-06-06 17:25:00,98.1,45.9,29.62,North,5,0.0,0.0,17,0.00,,---,0.00,VWS V14.01,2013-06-07 00:25:00,
2013-06-06 17:30:00,97.7,45.6,29.62,North,1,0.0,0.0,17,0.00,,---,0.00,VWS V14.01,2013-06-07 00:30:00,
2013-06-06 17:36:00,97.3,45.3,29.62,North,1,0.0,0.0,17,0.00,,---,0.00,VWS V14.01,2013-06-07 00:36:00,
2013-06-06 17:41:00,97.3,45.3,29.62,North,357,0.0,0.0,17,0.00,,---,0.00,VWS V14.01,2013-06-07 00:41:00,
2013-06-06 17:46:00,97.3,45.3,29.62,NE,50,0.0,0.0,17,0.00,,---,0.00,VWS V14.01,2013-06-07 00:46:00,
2013-06-06 17:51:00,96.8,44.8,29.62,North,357,0.0,0.0,17,0.00,,---,0.00,VWS V14.01,2013-06-07 00:51:00,
2013-06-06 17:56:00,96.8,44.8,29.62,North,357,0.0,0.0,17,0.00,,---,0.00,VWS V14.01,2013-06-07 00:56:00,
2013-06-06 18:01:00,97.2,45.1,29.62,North,357,0.0,0.0,17,0.00,,---,0.00,VWS V14.01,2013-06-07 01:01:00,
2013-06-06 18:06:00,97.2,45.1,29.62,North,7,3.1,3.1,17,0.00,,---,0.00,VWS V14.01,2013-06-07 01:06:00,
2013-06-06 18:11:00,97.9,45.7,29.62,North,10,8.1,8.1,17,0.00,,---,0.00,VWS V14.01,2013-06-07 01:11:00,
2013-06-06 18:17:00,97.9,45.7,29.62,North,9,0.0,0.0,17,0.00,,---,0.00,VWS V14.01,2013-06-07 01:17:00,
2013-06-06 18:22:00,98.2,46.0,29.62,North,9,4.0,4.0,17,0.00,,---,0.00,VWS V14.01,2013-06-07 01:22:00,
2013-06-06 18:27:00,98.8,46.4,29.62,North,9,4.0,4.0,17,0.00,,---,0.00,VWS V14.01,2013-06-07 01:27:00,
2013-06-06 18:32:00,98.6,46.3,29.62,North,10,11.0,11.0,17,0.00,,---,0.00,VWS V14.01,2013-06-07 01:32:00,
2013-06-06 18:37:00,98.2,46.0,29.65,North,11,5.4,5.4,17,0.00,,---,0.00,VWS V14.01,2013-06-07 01:37:00,
2013-06-06 18:42:00,98.2,46.0,29.65,NNE,13,8.7,8.7,17,0.00,,---,0.00,VWS V14.01,2013-06-07 01:42:00,
2013-06-06 18:48:00,97.3,45.3,29.65,NNE,12,8.1,8.7,17,0.00,,---,0.00,VWS V14.01,2013-06-07 01:48:00,
2013-06-06 20:26:00,91.6,40.7,29.65,SW,223,8.3,8.3,17,0.00,,---,0.00,VWS V14.01,2013-06-07 03:26:00,
2013-06-06 20:31:00,91.9,40.9,29.65,SW,219,8.3,10.1,17,0.00,,---,0.00,VWS V14.01,2013-06-07 03:31:00,
2013-06-06 20:36:00,91.6,40.7,29.68,SSW,205,0.0,0.0,17,0.00,,---,0.00,VWS V14.01,2013-06-07 03:36:00,
2013-06-06 20:41:00,91.4,40.5,29.68,SSW,210,0.0,0.0,17,0.00,,---,0.00,VWS V14.01,2013-06-07 03:41:00,
2013-06-06 20:47:00,91.0,40.2,29.68,SSW,213,0.0,0.0,17,0.00,,---,0.00,VWS V14.01,2013-06-07 03:47:00,
2013-06-06 20:52:00,91.0,40.2,29.68,SW,230,0.0,0.0,17,0.00,,---,0.00,VWS V14.01,2013-06-07 03:52:00,
2013-06-06 20:57:00,90.9,40.1,29.68,SW,231,0.0,0.0,17,0.00,,---,0.00,VWS V14.01,2013-06-07 03:57:00,
2013-06-06 21:01:00,91.0,40.2,29.68,SW,233,0.0,0.0,17,0.00,,---,0.00,VWS V14.01,2013-06-07 04:01:00,
2013-06-06 21:02:00,91.0,40.2,29.68,SW,220,0.0,0.0,17,0.00,,---,0.00,VWS V14.01,2013-06-07 04:02:00,
2013-06-06 21:03:00,90.9,40.1,29.68,SSW,199,0.0,0.0,17,0.00,,---,0.00,VWS V14.01,2013-06-07 04:03:00,
2013-06-06 21:08:00,90.9,40.1,29.68,SW,221,0.0,0.0,17,0.00,,---,0.00,VWS V14.01,2013-06-07 04:08:00,
2013-06-06 21:13:00,90.9,40.1,29.68,WSW,237,0.0,0.0,17,0.00,,---,0.00,VWS V14.01,2013-06-07 04:13:00,
2013-06-06 21:18:00,90.9,40.1,29.68,SW,231,0.0,0.0,17,0.00,,---,0.00,VWS V14.01,2013-06-07 04:18:00,
2013-06-06 21:23:00,90.7,39.9,29.68,SW,221,0.0,0.0,17,0.00,,---,0.00,VWS V14.01,2013-06-07 04:23:00,
2013-06-06 21:28:00,90.5,39.8,29.68,SW,235,0.0,0.0,17,0.00,,---,0.00,VWS V14.01,2013-06-07 04:28:00,
2013-06-06 21:33:00,90.5,39.8,29.68,SW,221,0.0,0.0,17,0.00,,---,0.00,VWS V14.01,2013-06-07 04:33:00,
2013-06-06 21:39:00,90.5,39.8,29.68,SW,224,0.0,0.0,17,0.00,,---,0.00,VWS V14.01,2013-06-07 04:39:00,
2013-06-06 21:44:00,90.7,39.9,29.68,SE,133,0.0,0.0,17,0.00,,---,0.00,VWS V14.01,2013-06-07 04:44:00,
2013-06-06 21:49:00,90.7,39.9,29.68,SW,225,0.0,0.0,17,0.00,,---,0.00,VWS V14.01,2013-06-07 04:49:00,
2013-06-06 21:54:00,90.5,39.8,29.68,WSW,257,0.0,0.0,17,0.00,,---,0.00,VWS V14.01,2013-06-07 04:54:00,
2013-06-06 21:59:00,90.3,39.6,29.68,SW,226,0.0,0.0,17,0.00,,---,0.00,VWS V14.01,2013-06-07 04:59:00,
2013-06-06 22:04:00,90.3,39.6,29.68,SSW,192,0.0,0.0,17,0.00,,---,0.00,VWS V14.01,2013-06-07 05:04:00,
2013-06-06 22:09:00,90.5,39.8,29.68,West,270,0.0,0.0,17,0.00,,---,0.00,VWS V14.01,2013-06-07 05:09:00,
2013-06-06 22:14:00,90.1,39.5,29.68,West,270,0.0,0.0,17,0.00,,---,0.00,VWS V14.01,2013-06-07 05:14:00,
2013-06-06 22:20:00,89.4,38.9,29.68,NNW,333,0.0,0.0,17,0.00,,---,0.00,VWS V14.01,2013-06-07 05:20:00,
2013-06-06 22:25:00,88.7,38.3,29.68,SSE,158,0.0,0.0,17,0.00,,---,0.00,VWS V14.01,2013-06-07 05:25:00,
2013-06-06 22:30:00,88.0,37.8,29.68,East,89,0.0,0.0,17,0.00,,---,0.00,VWS V14.01,2013-06-07 05:30:00,
2013-06-06 22:35:00,87.1,37.0,29.71,ENE,68,0.0,0.0,17,0.00,,---,0.00,VWS V14.01,2013-06-07 05:35:00,
2013-06-06 22:40:00,85.8,36.0,29.71,NNW,336,0.0,0.0,17,0.00,,---,0.00,VWS V14.01,2013-06-07 05:40:00,
2013-06-06 22:45:00,84.7,35.1,29.71,WNW,294,0.0,0.0,17,0.00,,---,0.00,VWS V14.01,2013-06-07 05:45:00,
2013-06-06 22:50:00,84.0,34.6,29.71,WSW,251,0.0,0.0,17,0.00,,---,0.00,VWS V14.01,2013-06-07 05:50:00,
2013-06-06 22:56:00,83.3,34.0,29.71,NNW,335,0.0,0.0,17,0.00,,---,0.00,VWS V14.01,2013-06-07 05:56:00,
2013-06-06 23:01:00,82.6,33.4,29.71,NNE,23,0.0,0.0,17,0.00,,---,0.00,VWS V14.01,2013-06-07 06:01:00,
2013-06-06 23:06:00,84.7,35.1,29.71,SE,140,0.0,0.0,17,0.00,,---,0.00,VWS V14.01,2013-06-07 06:06:00,
2013-06-06 23:11:00,85.1,35.4,29.71,WNW,286,0.0,5.4,17,0.00,,---,0.00,VWS V14.01,2013-06-07 06:11:00,
2013-06-06 23:16:00,85.1,35.4,29.71,NE,47,4.9,4.9,17,0.00,,---,0.00,VWS V14.01,2013-06-07 06:16:00,
2013-06-06 23:21:00,84.2,34.7,29.71,WSW,252,8.1,8.1,17,0.00,,---,0.00,VWS V14.01,2013-06-07 06:21:00,
2013-06-06 23:26:00,84.2,34.7,29.71,West,260,0.0,0.0,17,0.00,,---,0.00,VWS V14.01,2013-06-07 06:26:00,
2013-06-06 23:32:00,84.4,34.8,29.71,NE,48,0.0,0.0,17,0.00,,---,0.00,VWS V14.01,2013-06-07 06:32:00,
2013-06-06 23:37:00,83.7,34.3,29.71,North,9,0.0,0.0,17,0.00,,---,0.00,VWS V14.01,2013-06-07 06:37:00,
2013-06-06 23:42:00,82.8,33.5,29.71,NNW,329,4.0,6.3,17,0.00,,---,0.00,VWS V14.01,2013-06-07 06:42:00,
2013-06-06 23:47:00,82.0,33.0,29.71,NNE,27,3.1,3.6,17,0.00,,---,0.00,VWS V14.01,2013-06-07 06:47:00,
2013-06-06 23:52:00,81.3,32.4,29.71,West,278,0.0,0.0,17,0.00,,---,0.00,VWS V14.01,2013-06-07 06:52:00,
2013-06-06 23:57:00,80.6,31.8,29.71,NNW,343,0.0,0.0,17,0.00,,---,0.00,VWS V14.01,2013-06-07 06:57:00,